TimeMST,TemperatureF,Dew PointF,Humidity,Sea Level PressureIn,VisibilityMPH,Wind Direction,Wind SpeedMPH,Gust SpeedMPH,PrecipitationIn,Events,Conditions,WindDirDegrees,DateUTC
12:51 AM,48.0,26.1,42,30.02,10.0,WSW,4.6,-,N/A,,Clear,240,2013-01-25 07:51:00
1:51 AM,51.1,27.0,39,30.02,10.0,North,6.9,-,N/A,,Clear,360,2013-01-25 08:51:00
2:51 AM,50.0,27.0,41,30.04,10.0,WNW,5.8,-,N/A,,Clear,300,2013-01-25 09:51:00
3:51 AM,59.0,36.0,42,30.01,10.0,WNW,16.1,-,N/A,,Clear,300,2013-01-25 10:51:00
4:51 AM,57.0,37.9,49,30.01,10.0,NW,13.8,-,N/A,,Clear,320,2013-01-25 11:51:00
5:51 AM,57.9,39.0,49,30.01,10.0,NW,16.1,21.9,N/A,,Clear,310,2013-01-25 12:51:00
6:51 AM,59.0,39.0,48,30.02,10.0,WNW,8.1,-,N/A,,Clear,300,2013-01-25 13:51:00
7:51 AM,59.0,39.0,48,30.06,10.0,North,4.6,-,N/A,,Clear,350,2013-01-25 14:51:00
8:51 AM,64.0,39.0,40,30.05,10.0,NNW,5.8,-,N/A,,Clear,340,2013-01-25 15:51:00
9:51 AM,68.0,39.0,35,30.06,10.0,North,6.9,-,N/A,,Clear,350,2013-01-25 16:51:00
10:51 AM,70.0,35.1,28,30.06,10.0,North,19.6,-,N/A,,Clear,360,2013-01-25 17:51:00
11:51 AM,68.0,33.1,27,30.07,10.0,North,18.4,-,N/A,,Clear,360,2013-01-25 18:51:00
12:51 PM,70.0,30.9,24,30.04,10.0,North,13.8,-,N/A,,Clear,10,2013-01-25 19:51:00
1:51 PM,68.0,30.0,24,30.01,10.0,NE,9.2,-,N/A,,Clear,50,2013-01-25 20:51:00
2:51 PM,69.1,30.9,24,29.99,10.0,NE,10.4,-,N/A,,Clear,40,2013-01-25 21:51:00
3:51 PM,68.0,30.0,24,29.97,10.0,East,10.4,-,N/A,,Clear,80,2013-01-25 22:51:00
5:51 PM,60.1,28.0,30,30.01,10.0,Calm,Calm,-,N/A,,Clear,0,2013-01-26 00:51:00
6:51 PM,55.0,28.0,35,30.04,10.0,Calm,Calm,-,N/A,,Clear,0,2013-01-26 01:51:00
7:51 PM,54.0,28.9,38,30.03,10.0,West,3.5,-,N/A,,Clear,280,2013-01-26 02:51:00
8:51 PM,50.0,28.0,43,30.03,10.0,WSW,3.5,-,N/A,,Clear,250,2013-01-26 03:51:00
9:51 PM,50.0,28.0,43,30.03,10.0,Calm,Calm,-,N/A,,Clear,0,2013-01-26 04:51:00
11:51 PM,46.9,28.0,48,30.03,10.0,Calm,Calm,-,N/A,,Mostly Cloudy,0,2013-01-26 06:51:00